Weather History for Kankakee, IL

Change the Weather History Date:

Tuesday, November 2, 2010

  Actual Average Record
Temperature  
Mean Temperature 40 °F -  
Max Temperature 53 °F 59 °F 73 °F (1983)
Min Temperature 28 °F 39 °F 20 °F (1991)
Degree Days  
Heating Degree Days 24    
Moisture  
Dew Point 27 °F    
Average Humidity 60    
Maximum Humidity 86    
Minimum Humidity 33    
Precipitation  
Precipitation 0.00 in - - ()
Sea Level Pressure  
Sea Level Pressure 30.42 in    
Wind  
Wind Speed 7 mph (ENE)    
Max Wind Speed 17 mph    
Max Gust Speed 22 mph    
Visibility 10 miles    
Events      
Averages and records for this station are not official NWS values.
T = Trace of Precipitation, MM = Missing Value Source: NWS Daily Summary

Daily Weather History Graph

Daily Weather History Graph

Search for Another Location

Airport:

Trip Planner

Search our weather history database for the weather conditions in past years. The results will help you decide how hot, cold, wet, or windy it might be!

Date:

Astronomy

Nov. 02, 2010 Rise Set
Actual Time 7:23 AM CDT 5:45 PM CDT
Civil Twilight 6:54 AM CDT 6:14 PM CDT
Nautical Twilight 6:22 AM CDT 6:47 PM CDT
Astronomical Twilight 5:50 AM CDT 7:19 PM CDT
Moon 3:08 AM CDT (11/2) 3:25 PM CDT (11/2)
Length of Visible Light 11h 19m
Length of Day
10h 22m
Waning Crescent, 16% of the Moon is Illuminated
Nov 2
Waning Crescent
Nov 5
New
Nov 13
First Quarter
Nov 21
Full
Nov 28
Last Quarter

Hourly Weather History & Observations

Time (CDT) Temp. Windchill Dew Point Humidity Pressure Visibility Wind Dir Wind Speed Gust Speed Precip Events Conditions
12:04 AM 33.8 °F 30.8 °F 28.4 °F 81% 30.44 in 10.0 mi ENE 3.5 mph - N/A   Clear
12:24 AM 33.8 °F 29.6 °F 26.6 °F 75% 30.44 in 10.0 mi ENE 4.6 mph - N/A   Clear
12:44 AM 32.0 °F 27.5 °F 26.6 °F 80% 30.44 in 10.0 mi ENE 4.6 mph - N/A   Clear
1:04 AM 33.8 °F 28.6 °F 26.6 °F 75% 30.44 in 10.0 mi East 5.8 mph - N/A   Clear
1:24 AM 33.8 °F 27.7 °F 24.8 °F 70% 30.44 in 10.0 mi East 6.9 mph - N/A   Clear
1:44 AM 33.8 °F 27.7 °F 26.6 °F 75% 30.45 in 10.0 mi East 6.9 mph - N/A   Clear
2:04 AM 33.8 °F 27.7 °F 26.6 °F 75% 30.45 in 10.0 mi East 6.9 mph - N/A   Clear
2:24 AM 33.8 °F 28.6 °F 26.6 °F 75% 30.45 in 10.0 mi East 5.8 mph - N/A   Clear
2:44 AM 33.8 °F 27.7 °F 26.6 °F 75% 30.45 in 10.0 mi East 6.9 mph - N/A   Clear
3:04 AM 33.8 °F 27.7 °F 26.6 °F 75% 30.45 in 10.0 mi East 6.9 mph - N/A   Clear
3:24 AM 33.8 °F 29.6 °F 26.6 °F 75% 30.45 in 10.0 mi ENE 4.6 mph - N/A   Clear
3:44 AM 32.0 °F 26.4 °F 26.6 °F 80% 30.44 in 10.0 mi East 5.8 mph - N/A   Clear
4:04 AM 32.0 °F 26.4 °F 26.6 °F 80% 30.45 in 10.0 mi ENE 5.8 mph - N/A   Clear
4:24 AM 32.0 °F 27.5 °F 26.6 °F 80% 30.45 in 10.0 mi ENE 4.6 mph - N/A   Clear
4:44 AM 30.2 °F 24.3 °F 24.8 °F 80% 30.46 in 10.0 mi NE 5.8 mph - N/A   Clear
5:04 AM 30.2 °F 23.4 °F 24.8 °F 80% 30.46 in 10.0 mi NE 6.9 mph - N/A   Clear
5:24 AM 28.4 °F 23.3 °F 24.8 °F 86% 30.46 in 10.0 mi ENE 4.6 mph - N/A   Clear
5:44 AM 28.4 °F 23.3 °F 24.8 °F 86% 30.47 in 10.0 mi East 4.6 mph - N/A   Clear
6:04 AM 30.2 °F 22.6 °F 24.8 °F 80% 30.46 in 10.0 mi East 8.1 mph - N/A   Clear
6:24 AM 30.2 °F 26.7 °F 24.8 °F 80% 30.47 in 10.0 mi ENE 3.5 mph - N/A   Clear
6:44 AM 30.2 °F 25.4 °F 26.6 °F 86% 30.47 in 10.0 mi NE 4.6 mph - N/A   Clear
7:04 AM 30.2 °F 24.3 °F 24.8 °F 80% 30.47 in 10.0 mi NE 5.8 mph - N/A   Clear
7:24 AM 28.4 °F 23.3 °F 24.8 °F 86% 30.48 in 10.0 mi NE 4.6 mph - N/A   Clear
7:44 AM 30.2 °F 24.3 °F 26.6 °F 86% 30.48 in 10.0 mi NE 5.8 mph - N/A   Clear
8:04 AM 32.0 °F 27.5 °F 26.6 °F 80% 30.47 in 10.0 mi NE 4.6 mph - N/A   Clear
8:24 AM 33.8 °F 28.6 °F 28.4 °F 81% 30.46 in 10.0 mi ENE 5.8 mph - N/A   Clear
8:44 AM 35.6 °F 28.0 °F 28.4 °F 75% 30.47 in 10.0 mi East 10.4 mph - N/A   Clear
9:04 AM 37.4 °F 30.8 °F 28.4 °F 70% 30.46 in 10.0 mi East 9.2 mph - N/A   Clear
9:24 AM 39.2 °F 32.5 °F 28.4 °F 65% 30.47 in 10.0 mi East 10.4 mph - N/A   Clear
9:44 AM 42.8 °F 36.6 °F 28.4 °F 57% 30.47 in 10.0 mi ESE 11.5 mph - N/A   Clear
10:04 AM 42.8 °F 35.8 °F 28.4 °F 57% 30.47 in 10.0 mi East 13.8 mph - N/A   Clear
10:24 AM 44.6 °F 38.8 °F 28.4 °F 53% 30.47 in 10.0 mi ESE 11.5 mph - N/A   Clear
10:44 AM 46.4 °F 39.5 °F 28.4 °F 50% 30.47 in 10.0 mi East 17.3 mph 21.9 mph N/A   Clear
11:04 AM 46.4 °F 40.4 °F 28.4 °F 50% 30.46 in 10.0 mi ESE 13.8 mph 19.6 mph N/A   Clear
11:24 AM 48.2 °F - 28.4 °F 46% 30.45 in 10.0 mi ESE 15.0 mph 20.7 mph N/A   Clear
11:44 AM 50.0 °F - 28.4 °F 43% 30.45 in 10.0 mi East 13.8 mph - N/A   Clear
12:04 PM 50.0 °F - 28.4 °F 43% 30.44 in 10.0 mi ESE 10.4 mph - N/A   Clear
12:24 PM 51.8 °F - 28.4 °F 41% 30.42 in 10.0 mi ESE 15.0 mph - N/A   Clear
12:44 PM 51.8 °F - 28.4 °F 41% 30.41 in 10.0 mi ESE 10.4 mph - N/A   Clear
1:04 PM 51.8 °F - 26.6 °F 38% 30.39 in 10.0 mi East 13.8 mph - N/A   Clear
1:24 PM 53.6 °F - 26.6 °F 35% 30.38 in 10.0 mi East 12.7 mph - N/A   Clear
1:44 PM 53.6 °F - 26.6 °F 35% 30.37 in 10.0 mi ENE 15.0 mph - N/A   Clear
2:04 PM 53.6 °F - 26.6 °F 35% 30.36 in 10.0 mi East 11.5 mph - N/A   Clear
2:24 PM 53.6 °F - 26.6 °F 35% 30.35 in 10.0 mi ENE 11.5 mph - N/A   Clear
2:44 PM 53.6 °F - 26.6 °F 35% 30.35 in 10.0 mi ENE 8.1 mph - N/A   Clear
3:04 PM 53.6 °F - 24.8 °F 33% 30.34 in 3.0 mi East 12.7 mph 17.3 mph N/A   Haze
3:24 PM 53.6 °F - 24.8 °F 33% 30.34 in 1.8 mi ENE 9.2 mph 17.3 mph N/A   Haze
3:44 PM 53.6 °F - 24.8 °F 33% 30.34 in 10.0 mi East 9.2 mph - N/A   Clear
4:04 PM 53.6 °F - 24.8 °F 33% 30.33 in 10.0 mi East 6.9 mph - N/A   Clear
4:24 PM 53.6 °F - 24.8 °F 33% 30.33 in 10.0 mi East 8.1 mph - N/A   Clear
4:44 PM 51.8 °F - 24.8 °F 35% 30.33 in 10.0 mi East 6.9 mph - N/A   Clear
5:04 PM 51.8 °F - 24.8 °F 35% 30.33 in 10.0 mi East 6.9 mph - N/A   Clear
5:24 PM 48.2 °F - 26.6 °F 43% 30.32 in 10.0 mi East 6.9 mph - N/A   Clear
5:44 PM 46.4 °F 45.2 °F 26.6 °F 46% 30.32 in 10.0 mi ENE 3.5 mph - N/A   Clear
6:04 PM 44.6 °F 42.2 °F 24.8 °F 46% 30.32 in 10.0 mi East 4.6 mph - N/A   Clear
6:24 PM 42.8 °F 40.1 °F 26.6 °F 53% 30.32 in 10.0 mi East 4.6 mph - N/A   Clear
6:44 PM 42.8 °F 41.1 °F 26.6 °F 53% 30.33 in 10.0 mi ENE 3.5 mph - N/A   Clear
7:04 PM 42.8 °F 40.1 °F 26.6 °F 53% 30.32 in 10.0 mi ENE 4.6 mph - N/A   Clear
7:24 PM 39.2 °F 35.0 °F 26.6 °F 61% 30.32 in 10.0 mi NE 5.8 mph - N/A   Clear
7:44 PM 39.2 °F 35.9 °F 26.6 °F 61% 30.32 in 10.0 mi NE 4.6 mph - N/A   Clear
8:04 PM 39.2 °F 35.9 °F 28.4 °F 65% 30.31 in 10.0 mi NE 4.6 mph - N/A   Clear
8:24 PM 39.2 °F 37.0 °F 28.4 °F 65% 30.31 in 10.0 mi NE 3.5 mph - N/A   Clear
8:44 PM 39.2 °F - 28.4 °F 65% 30.30 in 10.0 mi Calm Calm - N/A   Clear
9:04 PM 35.6 °F - 26.6 °F 70% 30.30 in 10.0 mi Calm Calm - N/A   Clear
9:24 PM 35.6 °F - 26.6 °F 70% 30.30 in 10.0 mi Calm Calm - N/A   Clear
9:44 PM 35.6 °F - 26.6 °F 70% 30.30 in 10.0 mi Calm Calm - N/A   Clear
10:04 PM 33.8 °F - 26.6 °F 75% 30.30 in 10.0 mi Calm Calm - N/A   Clear
10:24 PM 33.8 °F - 28.4 °F 81% 30.29 in 10.0 mi Calm Calm - N/A   Clear
10:44 PM 32.0 °F - 28.4 °F 87% 30.29 in 10.0 mi Calm Calm - N/A   Clear
11:04 PM 32.0 °F - 28.4 °F 87% 30.29 in 10.0 mi Calm Calm - N/A   Clear
11:24 PM 32.0 °F - 28.4 °F 87% 30.28 in 7.0 mi Calm Calm - N/A   Clear
11:44 PM 32.0 °F - 28.4 °F 87% 30.27 in 7.0 mi Calm Calm - N/A   Clear